Location: *
(55.5817°S, 142.4781°W)
Time: 17:16:53
(UTC+00:00)

BlueWalker 3 - Visible Passes

Search period start: 14 June 2025 00:00
Search period end: 24 June 2025 00:00
Orbit: 460 x 472 km, 53.2° (Epoch: 13 June)

Date Brightness Start Highest point End Pass type
(mag) Time Alt. Az. Time Alt. Az. Time Alt. Az.
14 Jun 4.9 04:48:12 10° NW 04:48:13 10° NW 04:48:13 10° NW visible
15 Jun 4.1 04:16:03 10° NNW 04:17:22 18° NNW 04:17:22 18° NNW visible
16 Jun 3.4 03:43:54 10° NNW 03:46:27 25° NNE 03:46:27 25° NNE visible
17 Jun 3.3 03:11:45 10° NNW 03:14:46 23° NNE 03:15:28 22° NE visible
17 Jun 4.5 04:48:21 10° WNW 04:49:24 18° WNW 04:49:24 18° WNW visible
18 Jun 3.6 02:39:39 10° NNW 02:42:29 21° NE 02:44:26 15° ENE visible
18 Jun 3.4 04:16:03 10° WNW 04:18:21 33° NW 04:18:21 33° NW visible
19 Jun 3.8 02:07:33 10° N 02:10:12 19° NE 02:12:52 10° E visible
19 Jun 2.4 03:43:43 10° WNW 03:47:16 47° NNE 03:47:16 47° NNE visible
19 Jun 5.3 05:21:07 10° W 05:21:12 11° W 05:21:12 11° W visible
20 Jun 2.5 03:11:24 10° NW 03:14:57 43° NNE 03:16:09 32° ENE visible
20 Jun 4.4 04:48:43 10° W 04:50:04 21° WNW 04:50:04 21° WNW visible
21 Jun 2.7 02:39:04 10° NW 02:42:35 40° NNE 02:44:59 18° E visible
21 Jun 3.1 04:16:19 10° W 04:18:55 40° WNW 04:18:55 40° WNW visible
22 Jun 2.9 02:06:44 10° NW 02:10:11 37° NNE 02:13:40 10° E visible
22 Jun 2.0 03:43:54 10° WNW 03:47:36 61° N 03:47:44 60° NNE visible
22 Jun 5.2 05:21:29 10° W 05:21:40 11° W 05:21:40 11° W visible
23 Jun 2.1 03:11:28 10° WNW 03:15:09 60° N 03:16:33 34° ENE visible
23 Jun 4.3 04:49:02 10° W 04:50:29 21° W 04:50:29 21° W visible
